www.pogodaiklimat.ru

Погода и климат >> Архив погоды >> Пакистан >> Исламабад Сити


ПОГОДА в Исламабад Сити

  • Прогноз погоды в Исламабад Сити
  • Монитор погоды в Исламабад Сити

АРХИВ ПОГОДЫ в Исламабад Сити

Время (UTC), дата Ветер
(напр.,м/с)
 
Видим.   Явления Облачность Т
(С)
Тd
(С)
f
(%)
Тe
(С)
Тes
(С)
Комфортность P
(гПа)
Po
(гПа)
Тmin
(С)
Tmax
(С)
R
(мм)
R24
(мм)
S
(см)
09 14.07 ЮВ 1 4000 м дым 6/4 1200 м
[Sc Ac As]
+32.5 +24.3 62 +45 +54 опасность
перегрева
994.2 937.5
12 14.07 ЮЗ 2 4000 м мгла 9/4 900 м
[Sc diur, vesp Ac trans]
+32.5 +24.3 62 +45 +46 опасность
перегрева
993.2 935.9 +33.5
21 14.07 штиль 0 4000 м мгла 10/4 900 м
[Sc Ac As]
+25.5 +24.1 92 +35 +35 очень
душно
995.9 937.8 0.0
00 15.07 штиль 0 4000 м мгла 10/4 900 м
[Sc Ac As]
+25.0 +22.9 88 +33 +33 очень
душно
995.2 936.6
03 15.07 штиль 0 4000 м мгла 9/4 900 м
[Sc Ac As]
+25.5 +21.9 81 +33 +35 очень
душно
996.0 937.2 +22.0
06 15.07 ЮЗ 1 4000 м дым 3/1 900 м
[Cu hum Ac trans]
+30.5 +22.8 64 +40 +58 опасность
солнечного
удара
995.2 938.1
09 15.07 ЮВ 1 4000 м дым 5/5 900 м
[Sc diur, vesp]
+31.5 +22.4 59 +41 +51 опасность
перегрева
994.5 937.6
12 15.07 ЮЗ 1 4000 м дым 6/5 1050 м
[Sc diur, vesp Ac As]
+31.5 +21.5 55 +39 +41 очень
душно
1003.9 936.4 +32.2
15 15.07 штиль 0 4000 м дым 5/1 1200 м
[Sc Ac As]
+29.5 +21.6 63 +38 +38 очень
душно
995.8 938.5
18 15.07 штиль 0 4000 м дым 3/0
[Ac As]
+26.5 +22.2 77 +34 +34 очень
душно
998.3 939.6
21 15.07 штиль 0 4000 м дым 8/3 1200 м
[Sc Ac As]
+26.0 +21.7 77 +33 +33 очень
душно
997.5 939.4
00 16.07 штиль 0 4000 м в посл. час гроза {морось} 10/3 1200 м
[Sc Ac As]
+25.0 +22.1 84 +32 +32 очень
душно
997.3 938.6 0.0
03 16.07 штиль 0 4000 м дым 6/3 1200 м
[Sc As op]
+26.5 +23.0 81 +35 +40 очень
душно
997.5 939.0 +21.5
06 16.07 ЮЗ 2 4000 м дым 8/4 900 м
[Sc diur, vesp Ac As]
+29.0 +23.4 72 +39 +46 очень
душно
999.6 942.0
09 16.07 ЮВ 2 4000 м дым 6/4 900 м
[Sc diur, vesp Ac As]
+30.0 +22.2 63 +39 +47 очень
душно
999.3 941.9
12 16.07 ЮВ 2 4000 м дым 3/3 1200 м
[Cu med, cong]
+31.0 +21.8 58 +39 +42 очень
душно
998.2 940.4 +31.2
15 16.07 штиль 0 4000 м дым 3/0
[Ac trans]
+29.0 +21.9 66 +37 +37 очень
душно
999.9 942.3
18 16.07 штиль 0 50 км дым ?/? +26.0 +22.4 81 +34 +34 очень
душно
1002.7 943.6
00 17.07 штиль 0 4000 м дым 3/0
[Ac trans]
+23.5 +22.1 92 +30 +30 очень
душно
1002.2 942.8
06 17.07 штиль 0 4000 м дым 8/4 900 м
[Sc diur, vesp Ac As]
+28.5 +22.9 72 +38 +47 очень
душно
1002.3 944.4
09 17.07 штиль 0 4000 м дым 9/5 900 м
[Sc diur, vesp Ac As]
+31.0 +22.6 61 +41 +46 опасность
перегрева
1000.7 943.4
12 17.07 штиль 0 4000 м дым 9/5 900 м
[Sc diur, vesp Ac As]
+31.5 +22.4 59 +41 +42 опасность
перегрева
998.6 941.1 +31.7
15 17.07 штиль 0 4000 м дым 3/0
[Ac trans]
+30.0 +23.0 66 +40 +40 очень
душно
999.4 942.0
18 17.07 штиль 0 4000 м дым 8/4 600 м
[Sc diur, vesp Ac As]
+27.0 +22.8 78 +36 +36 очень
душно
1000.5 941.8
21 17.07 штиль 0 4000 м дым 8/4 600 м
[Sc diur, vesp Ac As]
+25.5 +23.4 88 +34 +34 очень
душно
1003.2 944.7
03 18.07 З 1 4000 м сильн. морось {дождь} 10/8 1200 м
[Sc diur, vesp Ac As]
+25.5 +23.3 88 +34 +35 очень
душно
1001.9 943.1 +21.5 1
06 18.07 штиль 0 4000 м дым {дождь} 10/4 1200 м
[Sc As trans]
+26.0 +23.9 88 +36 +42 очень
душно
1003.2 944.8 3
09 18.07 штиль 0 4000 м дым {морось} 8/4 900 м
[Sc diur, vesp Ac As]
+29.0 +22.6 68 +38 +46 очень
душно
1000.9 943.2 0.1
12 18.07 штиль 0 4000 м дым {морось} 5/3 900 м
[Cu hum Ac As]
+31.5 +23.1 61 +42 +45 опасность
перегрева
998.6 940.9 +31.6
15 18.07 штиль 0 4000 м зарница {гроза} 8/5 750 м
[Cb calv Ac As]
+28.5 +22.1 68 +37 +37 очень
душно
1000.6 942.8
18 18.07 штиль 0 4000 м дым {гроза, дождь} 4/3 900 м
[Sc diur, vesp Ac trans]
+24.0 +22.6 92 +31 +31 очень
душно
1002.7 943.2 0.0
21 18.07 штиль 0 4000 м дым 4/3 1050 м
[Sc diur, vesp Ac trans]
+23.0 +22.3 96 +31 +31 очень
душно
1002.7 943.8
00 19.07 штиль 0 4000 м дым 1/1 1050 м
[Sc diur, vesp]
+23.0 +22.3 96 +31 +31 очень
душно
1002.4 942.8
03 19.07 штиль 0 4000 м дым 9/4 1200 м
[Sc Ac As]
+27.5 +22.5 74 +36 +39 очень
душно
1002.2 943.5 +21.0
06 19.07 штиль 0 4000 м дым 4/4 1200 м
[Sc]
+31.5 +23.0 61 +42 +58 опасность
перегрева
1001.8 944.5
09 19.07 штиль 0 4000 м дым 5/4 1200 м
[Sc Ac trans]
+34.0 +22.0 50 +43 +55 опасность
перегрева
999.5 942.8
12 19.07 ЮВ 4 4000 м дым 10/4 1200 м
[Sc Ac As]
+28.0 +22.0 70 +36 +37 очень
душно
1002.2 943.4 +35.0
15 19.07 штиль 0 4000 м дым 9/5 1200 м
[Sc Ac trans]
+27.5 +21.8 71 +35 +35 очень
душно
1002.8 944.7
18 19.07 штиль 0 4000 м дым 10/5 1200 м
[Sc Ac As]
+26.0 +21.7 77 +33 +33 очень
душно
1003.4 945.0
21 19.07 штиль 0 4000 м дым 10/5 1200 м
[Sc As trans]
+24.5 +20.9 80 +31 +31 очень
душно
1004.2 945.5
00 20.07 штиль 0 4000 м дымка 10/5 1200 м
[Sc As trans]
+23.0 +20.8 87 +30 +30 очень
душно
1004.3 944.6
03 20.07 штиль 0 4000 м дым 4/0
[Ac trans]
+29.0 +21.9 66 +37 +45 очень
душно
1004.1 945.5 +23.0
06 20.07 штиль 0 4000 м мгла ясно +32.5 +20.2 48 +39 +65 опасность
солнечного
удара
1002.3 945.2
09 20.07 ЮЗ 2 4000 м мгла 1/1 1200 м
[Sc]
+35.0 +20.8 44 +42 +57 опасность
перегрева
1001.1 944.5
12 20.07 штиль 0 4000 м мгла 1/1 1200 м
[Sc]
+35.5 +21.4 44 +43 +48 опасность
перегрева
998.2 941.0 +35.5
15 20.07 штиль 0 4000 м дым 1/0
[Ac trans]
+33.0 +21.7 52 +41 +41 опасность
перегрева
999.9 943.0
18 20.07 штиль 0 4000 м дым 3/3 1050 м
[Sc]
+28.0 +23.8 78 +39 +39 очень
душно
1002.3 943.6
21 20.07 штиль 0 4000 м дым 3/3 1200 м
[Sc]
+27.0 +24.2 85 +38 +38 очень
душно
1003.1 944.9
00 21.07 штиль 0 4000 м дым 9/4 1200 м
[Sc diur, vesp Ac As]
+27.0 +24.2 85 +38 +38 очень
душно
1002.6 943.8
03 21.07 штиль 0 4000 м дым 9/4 1200 м
[Sc Ac As]
+29.0 +24.9 79 +42 +44 опасность
перегрева
1003.0 944.5 +26.5

 

Местоположение метеостанции Исламабад Сити (Пакистан): широта 33.72 долгота 73.10 высота над уровнем моря 525 м.

В архиве по умолчанию представлена погода в Исламабад Сити за последнюю неделю. Архивные данные за месяц целиком и за предыдущие месяцы, начиная с января 2011 года, Вы можете получить, выбрав интересующий диапазон дат из раскрывающегося списка и нажав кнопку "Ввод!".


*Определитесь, кто Вы:
робот инопланетянин человек

Внимание! Время в таблицах - всемирное. Для получения местного времени необходимо прибавить поправку, которая равна 5 ч.

Смотрите также архив погоды в соседних городах и на ближайших метеорологических станциях:

Погода в Исламабаде (Пакистан) (11 км)
Погода в Мерри (Пакистан) (34 км)
Погода в Какуле (Пакистан) (53 км)
Погода в Равалакоте (Пакистан) (66 км)
Погода в Балакоре (Пакистан) (77 км)
Погода в Мангле (Пакистан) (87 км)
Погода в Чаквале (Пакистан) (92 км)
Погода в Джеламе (Пакистан) (105 км)
Погода в Рисалпуре (Пакистан) (112 км)
Погода в Черате (Пакистан) (113 км)

Пояснения к столбцам:

Ветер - указаны скорость ветра в м/с - средняя за 10 мин, порывы в срок и между сроками (в фигурных скобках) и направление, откуда дует ветер: С - северный, СВ - северо-восточный, В - восточный, ЮВ - юго-восточный, Ю - южный, ЮЗ - юго-западный, З - западный, СЗ - северо-западный.
Видимость - горизонтальная дальность видимости в метрах или километрах. При видимости от 1 до 10 км при отсутствии осадков обычно наблюдается дымка, при ухудшении видимости до 1 км и менее - туман. В сухую погоду видимость может ухудшаться дымом, пылью или мглою.
Явления - указаны атмосферные явления, наблюдавшиеся в срок или в последний час перед сроком; фигурными скобками обозначены явления, наблюдавшиеся между сроками (за 1-3 часа до срока); квадратными скобками обозначены град или гололедные отложения с указанием их диаметра в мм.
Облачность - указаны через наклонную черту общая и нижняя облачность в баллах и высота нижней границы облаков в метрах; квадратными скобками обозначены формы облаков: Ci - перистые, Cs - перисто-слоистые, Cc - перисто-кучевые, Ac - высококучевые, As - высокослоистые, Sc - слоисто-кучевые, Ns - слоисто-дождевые, Cu - кучевые, Cb - кучево-дождевые. Подробнее классификацию облаков см. в Атласе облаков (PDF).
T - Температура воздуха - температура, измеренная на высоте 2 м над землей.
Td - Температура точки росы - температура, при понижении до которой содержащийся в воздухе водяной пар достигнет насыщения.
f - Относительная влажность воздуха - влажноcть воздуха, измеренная на высоте 2 м над землей.
Te - Эффективная температура - температура, которую ощущает одетый по сезону человек в тени. Характеристика душности погоды. При расчете учитывается влияние влажности воздуха и скорости ветра на теплоощущения человека.
Tes - Эффективная температура на солнце - температура, которую ощущает человек, с поправкой на солнечный нагрев. Характеристика знойности погоды. Зависит от высоты солнца над горизонтом, облачности и скорости ветра. Ночью, в пасмурную погоду, а также при ветре 12 м/с и более поправка равна нулю.
P - Атмосферное давление - приведенное к уровню моря атмосферное давление.
Po - Атмосферное давление - измеренное на уровне метеостанции атмосферное давление.
Tmin - Минимальная температура - минимум температуры воздуха на высоте 2 м над землей.
Tmax - Максимальная температура - максимум температуры воздуха на высоте 2 м над землей.
R - Количество осадков - Количество выпавших осадков за период времени, мм. При наведении курсора мыши на число - период времени, за который выпало указанное количество осадков.
R24 - Количество осадков - Количество выпавших осадков за 24 часа, мм.
S - Снежный покров - Высота снежного покрова, см. При наведении курсора мыши на число - состояние снежного покрова и степень покрытия местности в баллах.